PPFGA SBGO-SNMH

Flight info

Callsign PPFGA
Flight time 0h 47m
Altitude 5500
Route DCT 162915S0490531W DCT 162220S0491929W DCT 160538S0492011W DCT
Aircraft C152/L-S/C

Departure

Time 2026-04-21 14:19
Airport Santa Genoveva International Airport (SBGO)

Arrival

Time 2026-04-21 15:07
Airport Pirenopolis Centeral Airport (SNMH)
Time Latitude Longitude Altitude Speed Heading
2026-04-21 13:57 -16.63330 -49.22443 2447 ft 0 kts 25°
2026-04-21 14:12 -16.63325 -49.22441 2443 ft 3 kts 23°
2026-04-21 14:12 -16.63302 -49.22451 2447 ft 7 kts 309°
2026-04-21 14:13 -16.63265 -49.22513 2444 ft 9 kts 303°
2026-04-21 14:13 -16.63192 -49.22513 2447 ft 13 kts 327°
2026-04-21 14:13 -16.63134 -49.22603 2446 ft 17 kts 302°
2026-04-21 14:13 -16.63067 -49.22730 2450 ft 22 kts 304°
2026-04-21 14:14 -16.62986 -49.22873 2449 ft 26 kts 301°
2026-04-21 14:14 -16.62895 -49.23035 2457 ft 26 kts 302°
2026-04-21 14:14 -16.62811 -49.23100 2448 ft 17 kts 345°
2026-04-21 14:14 -16.62742 -49.23117 2452 ft 0 kts 347°
2026-04-21 14:17 -16.62741 -49.23117 2452 ft 1 kts 346°
2026-04-21 14:17 -16.62675 -49.23127 2451 ft 14 kts 25°
2026-04-21 14:18 -16.62655 -49.23073 2448 ft 11 kts 118°
2026-04-21 14:18 -16.62700 -49.22991 2449 ft 11 kts 118°
2026-04-21 14:18 -16.62758 -49.22885 2451 ft 28 kts 118°
2026-04-21 14:18 -16.62956 -49.22550 2471 ft 73 kts 122°
2026-04-21 14:19 -16.63336 -49.21960 2771 ft 72 kts 124°
2026-04-21 14:19 -16.63515 -49.21677 2954 ft 70 kts 117°
2026-04-21 14:19 -16.63750 -49.21241 3217 ft 67 kts 119°
2026-04-21 14:19 -16.63973 -49.20807 3444 ft 69 kts 114°
2026-04-21 14:20 -16.64259 -49.20388 3631 ft 73 kts 127°
2026-04-21 14:20 -16.64586 -49.19991 3819 ft 73 kts 127°
2026-04-21 14:20 -16.64867 -49.19548 4069 ft 71 kts 107°
2026-04-21 14:20 -16.64867 -49.19032 4299 ft 78 kts 73°
2026-04-21 14:21 -16.64536 -49.18563 4522 ft 84 kts 38°
2026-04-21 14:21 -16.63972 -49.18232 4578 ft 93 kts 32°
2026-04-21 14:21 -16.63423 -49.17914 4571 ft 89 kts 31°
2026-04-21 14:21 -16.62819 -49.17622 4456 ft 98 kts 27°
2026-04-21 14:22 -16.62194 -49.17365 4442 ft 99 kts 26°
2026-04-21 14:22 -16.61592 -49.17074 4558 ft 96 kts 28°
2026-04-21 14:22 -16.60988 -49.16753 4524 ft 98 kts 35°
2026-04-21 14:22 -16.60404 -49.16412 4454 ft 95 kts 29°
2026-04-21 14:23 -16.59812 -49.16086 4454 ft 96 kts 32°
2026-04-21 14:23 -16.59206 -49.15776 4447 ft 97 kts 27°
2026-04-21 14:23 -16.58574 -49.15522 4527 ft 97 kts 24°
2026-04-21 14:23 -16.57933 -49.15276 4549 ft 99 kts 22°
2026-04-21 14:24 -16.57307 -49.15003 4596 ft 97 kts 27°
2026-04-21 14:24 -16.56682 -49.14689 4538 ft 102 kts 30°
2026-04-21 14:24 -16.56052 -49.14382 4579 ft 99 kts 28°
2026-04-21 14:24 -16.55439 -49.14057 4436 ft 97 kts 31°
2026-04-21 14:25 -16.54855 -49.13763 4407 ft 92 kts 33°
2026-04-21 14:25 -16.54335 -49.13367 4305 ft 91 kts 40°
2026-04-21 14:25 -16.53816 -49.12972 4268 ft 92 kts 35°
2026-04-21 14:25 -16.53314 -49.12608 4290 ft 86 kts 38°
2026-04-21 14:26 -16.52810 -49.12254 4315 ft 89 kts 37°
2026-04-21 14:26 -16.52306 -49.11876 4335 ft 88 kts 41°
2026-04-21 14:26 -16.51823 -49.11434 4384 ft 93 kts 42°
2026-04-21 14:26 -16.51330 -49.11020 4397 ft 89 kts 45°
2026-04-21 14:27 -16.50833 -49.10596 4388 ft 95 kts 36°
2026-04-21 14:27 -16.50262 -49.10247 4363 ft 96 kts 32°
2026-04-21 14:27 -16.49669 -49.09931 4373 ft 94 kts 32°
2026-04-21 14:27 -16.49012 -49.09807 4388 ft 100 kts 357°
2026-04-21 14:28 -16.48419 -49.10172 4435 ft 105 kts 311°
2026-04-21 14:28 -16.48141 -49.10856 4523 ft 105 kts 290°
2026-04-21 14:28 -16.47930 -49.11568 4571 ft 100 kts 289°
2026-04-21 14:28 -16.47686 -49.12284 4522 ft 105 kts 292°
2026-04-21 14:29 -16.47448 -49.13008 4499 ft 109 kts 290°
2026-04-21 14:29 -16.47140 -49.13711 4530 ft 108 kts 299°
2026-04-21 14:29 -16.46810 -49.14423 4574 ft 110 kts 298°
2026-04-21 14:29 -16.46486 -49.15142 4474 ft 111 kts 298°
2026-04-21 14:30 -16.46141 -49.15847 4450 ft 107 kts 301°
2026-04-21 14:30 -16.45797 -49.16533 4462 ft 106 kts 303°
2026-04-21 14:30 -16.45461 -49.17231 4522 ft 109 kts 299°
2026-04-21 14:30 -16.45099 -49.17933 4555 ft 108 kts 310°
2026-04-21 14:31 -16.44708 -49.18593 4574 ft 108 kts 302°
2026-04-21 14:31 -16.44398 -49.19289 4536 ft 108 kts 296°
2026-04-21 14:31 -16.44105 -49.19998 4541 ft 105 kts 296°
2026-04-21 14:31 -16.43797 -49.20718 4544 ft 108 kts 299°
2026-04-21 14:32 -16.43497 -49.21412 4695 ft 104 kts 299°
2026-04-21 14:32 -16.43180 -49.22107 4780 ft 107 kts 299°
2026-04-21 14:32 -16.42900 -49.22818 4911 ft 106 kts 294°
2026-04-21 14:32 -16.42583 -49.23518 4972 ft 107 kts 300°
2026-04-21 14:33 -16.42190 -49.24206 4892 ft 115 kts 308°
2026-04-21 14:33 -16.41733 -49.24891 4813 ft 117 kts 310°
2026-04-21 14:33 -16.41272 -49.25597 4743 ft 117 kts 308°
2026-04-21 14:33 -16.40921 -49.26344 4746 ft 114 kts 302°
2026-04-21 14:34 -16.40496 -49.27062 4686 ft 118 kts 307°
2026-04-21 14:34 -16.40019 -49.27762 4572 ft 116 kts 310°
2026-04-21 14:34 -16.39558 -49.28400 4546 ft 109 kts 313°
2026-04-21 14:34 -16.39101 -49.28991 4557 ft 105 kts 316°
2026-04-21 14:35 -16.38611 -49.29558 4592 ft 103 kts 317°
2026-04-21 14:35 -16.38137 -49.30067 4789 ft 89 kts 321°
2026-04-21 14:35 -16.37643 -49.30406 4946 ft 82 kts 354°
2026-04-21 14:35 -16.37053 -49.30509 5051 ft 90 kts 356°
2026-04-21 14:36 -16.36436 -49.30551 5212 ft 86 kts
2026-04-21 14:36 -16.35861 -49.30623 5322 ft 86 kts 356°
2026-04-21 14:36 -16.35249 -49.30710 5424 ft 88 kts
2026-04-21 14:36 -16.34650 -49.30770 5519 ft 91 kts
2026-04-21 14:37 -16.33996 -49.30816 5469 ft 93 kts
2026-04-21 14:37 -16.33323 -49.30863 5450 ft 101 kts
2026-04-21 14:37 -16.32616 -49.30885 5477 ft 101 kts
2026-04-21 14:37 -16.31917 -49.30891 5473 ft 101 kts 360°
2026-04-21 14:38 -16.31224 -49.30960 5507 ft 98 kts
2026-04-21 14:38 -16.30542 -49.30985 5516 ft 98 kts
2026-04-21 14:38 -16.29843 -49.30977 5466 ft 104 kts
2026-04-21 14:38 -16.29134 -49.30924 5419 ft 99 kts
2026-04-21 14:39 -16.28455 -49.30890 5436 ft 98 kts
2026-04-21 14:39 -16.27791 -49.30856 5436 ft 95 kts
2026-04-21 14:39 -16.27118 -49.30858 5473 ft 98 kts
2026-04-21 14:39 -16.26445 -49.30883 5437 ft 99 kts 358°
2026-04-21 14:40 -16.25766 -49.30966 5510 ft 97 kts 358°
2026-04-21 14:40 -16.25096 -49.31075 5524 ft 99 kts 358°
2026-04-21 14:40 -16.24404 -49.31133 5552 ft 101 kts 359°
2026-04-21 14:40 -16.23713 -49.31172 5577 ft 99 kts
2026-04-21 14:41 -16.23013 -49.31216 5530 ft 105 kts 359°
2026-04-21 14:41 -16.22289 -49.31220 5519 ft 102 kts
2026-04-21 14:41 -16.21569 -49.31166 5479 ft 105 kts
2026-04-21 14:41 -16.20842 -49.31154 5521 ft 102 kts
2026-04-21 14:42 -16.20141 -49.31220 5569 ft 103 kts 359°
2026-04-21 14:42 -16.19419 -49.31303 5628 ft 103 kts 357°
2026-04-21 14:42 -16.18719 -49.31371 5710 ft 98 kts 358°
2026-04-21 14:42 -16.18052 -49.31488 5705 ft 98 kts 354°
2026-04-21 14:43 -16.17360 -49.31587 5609 ft 101 kts 355°
2026-04-21 14:43 -16.16646 -49.31703 5485 ft 106 kts 355°
2026-04-21 14:43 -16.15927 -49.31863 5361 ft 108 kts 351°
2026-04-21 14:43 -16.15216 -49.32016 5370 ft 103 kts 354°
2026-04-21 14:44 -16.14526 -49.32145 5338 ft 98 kts 357°
2026-04-21 14:44 -16.13847 -49.32248 5341 ft 100 kts 353°
2026-04-21 14:44 -16.13159 -49.32399 5339 ft 100 kts 353°
2026-04-21 14:44 -16.12477 -49.32420 5295 ft 99 kts 12°
2026-04-21 14:45 -16.11820 -49.32217 5320 ft 97 kts 22°
2026-04-21 14:45 -16.11205 -49.31939 5322 ft 96 kts 33°
2026-04-21 14:45 -16.10661 -49.31504 5201 ft 101 kts 46°
2026-04-21 14:45 -16.10240 -49.30949 5291 ft 94 kts 53°
2026-04-21 14:46 -16.09814 -49.30446 5353 ft 93 kts 46°
2026-04-21 14:46 -16.09345 -49.29977 5424 ft 93 kts 44°
2026-04-21 14:46 -16.08842 -49.29530 5377 ft 98 kts 40°
2026-04-21 14:46 -16.08283 -49.29153 5406 ft 96 kts 33°
2026-04-21 14:47 -16.07675 -49.28813 5404 ft 101 kts 31°
2026-04-21 14:47 -16.07073 -49.28479 5388 ft 98 kts 35°
2026-04-21 14:47 -16.06560 -49.28035 5374 ft 96 kts 49°
2026-04-21 14:47 -16.06119 -49.27529 5330 ft 95 kts 49°
2026-04-21 14:48 -16.05703 -49.26999 5381 ft 93 kts 52°
2026-04-21 14:48 -16.05291 -49.26481 5344 ft 92 kts 50°
2026-04-21 14:48 -16.04858 -49.25967 5322 ft 95 kts 49°
2026-04-21 14:48 -16.04427 -49.25449 5365 ft 94 kts 50°
2026-04-21 14:49 -16.04010 -49.24935 5326 ft 96 kts 51°
2026-04-21 14:49 -16.03578 -49.24412 5364 ft 96 kts 50°
2026-04-21 14:49 -16.03146 -49.23876 5466 ft 94 kts 54°
2026-04-21 14:49 -16.02758 -49.23337 5486 ft 94 kts 52°
2026-04-21 14:50 -16.02480 -49.22971 5508 ft 97 kts 54°
2026-04-21 14:50 -16.01996 -49.22228 5515 ft 98 kts 53°
2026-04-21 14:50 -16.01549 -49.21701 5449 ft 98 kts 51°
2026-04-21 14:50 -16.01137 -49.21131 5454 ft 99 kts 55°
2026-04-21 14:51 -16.00690 -49.20567 5429 ft 101 kts 47°
2026-04-21 14:51 -16.00234 -49.20039 5454 ft 94 kts 52°
2026-04-21 14:51 -15.99850 -49.19486 5521 ft 93 kts 55°
2026-04-21 14:51 -15.99462 -49.18943 5513 ft 93 kts 53°
2026-04-21 14:52 -15.99019 -49.18406 5435 ft 102 kts 50°
2026-04-21 14:52 -15.98557 -49.17854 5369 ft 102 kts 49°
2026-04-21 14:52 -15.98093 -49.17331 5409 ft 98 kts 47°
2026-04-21 14:52 -15.97623 -49.16834 5365 ft 99 kts 52°
2026-04-21 14:53 -15.97193 -49.16266 5268 ft 97 kts 51°
2026-04-21 14:53 -15.96781 -49.15744 4993 ft 94 kts 53°
2026-04-21 14:53 -15.96371 -49.15203 4707 ft 97 kts 50°
2026-04-21 14:53 -15.95953 -49.14688 4570 ft 86 kts 54°
2026-04-21 14:54 -15.95557 -49.14217 4493 ft 85 kts 46°
2026-04-21 14:54 -15.95162 -49.13792 4356 ft 82 kts 47°
2026-04-21 14:54 -15.94780 -49.13362 4318 ft 77 kts 51°
2026-04-21 14:54 -15.94495 -49.12898 4313 ft 72 kts 64°
2026-04-21 14:55 -15.94249 -49.12425 4312 ft 76 kts 61°
2026-04-21 14:55 -15.93985 -49.11958 4313 ft 76 kts 59°
2026-04-21 14:55 -15.93721 -49.11466 4267 ft 80 kts 64°
2026-04-21 14:55 -15.93477 -49.10933 4273 ft 82 kts 65°
2026-04-21 14:56 -15.93235 -49.10393 4246 ft 83 kts 63°
2026-04-21 14:56 -15.92959 -49.09869 4250 ft 83 kts 61°
2026-04-21 14:56 -15.92682 -49.09349 4175 ft 75 kts 58°
2026-04-21 14:56 -15.92455 -49.08876 4180 ft 77 kts 66°
2026-04-21 14:57 -15.92229 -49.08347 4176 ft 79 kts 64°
2026-04-21 14:57 -15.91993 -49.07816 4000 ft 81 kts 64°
2026-04-21 14:57 -15.91757 -49.07294 3963 ft 80 kts 68°
2026-04-21 14:57 -15.91570 -49.06745 3883 ft 83 kts 69°
2026-04-21 14:58 -15.91349 -49.06206 3926 ft 79 kts 64°
2026-04-21 14:58 -15.91065 -49.05720 3956 ft 82 kts 57°
2026-04-21 14:58 -15.90751 -49.05220 3986 ft 84 kts 54°
2026-04-21 14:58 -15.90457 -49.04701 3992 ft 85 kts 62°
2026-04-21 14:59 -15.90214 -49.04170 4071 ft 82 kts 65°
2026-04-21 14:59 -15.89972 -49.03614 3998 ft 94 kts 65°
2026-04-21 14:59 -15.89746 -49.03056 4143 ft 80 kts 66°
2026-04-21 14:59 -15.89536 -49.02489 3994 ft 90 kts 66°
2026-04-21 15:00 -15.89278 -49.01869 3844 ft 92 kts 66°
2026-04-21 15:00 -15.89044 -49.01252 3707 ft 92 kts 69°
2026-04-21 15:00 -15.88804 -49.00644 3611 ft 88 kts 70°
2026-04-21 15:00 -15.88521 -49.00109 3549 ft 83 kts 51°
2026-04-21 15:01 -15.88128 -48.99663 3481 ft 81 kts 51°
2026-04-21 15:01 -15.87750 -48.99256 3409 ft 79 kts 49°
2026-04-21 15:01 -15.87378 -48.98866 3373 ft 75 kts 51°
2026-04-21 15:01 -15.86995 -48.98502 3345 ft 77 kts 42°
2026-04-21 15:02 -15.86570 -48.98197 3280 ft 71 kts 35°
2026-04-21 15:02 -15.86131 -48.97926 3179 ft 76 kts 30°
2026-04-21 15:02 -15.85666 -48.97697 3211 ft 70 kts 28°
2026-04-21 15:02 -15.85190 -48.97510 3151 ft 76 kts 20°
2026-04-21 15:03 -15.84658 -48.97394 3163 ft 78 kts
2026-04-21 15:03 -15.84181 -48.97590 3177 ft 72 kts 318°
2026-04-21 15:03 -15.83898 -48.98024 3172 ft 73 kts 293°
2026-04-21 15:03 -15.83765 -48.98358 3203 ft 75 kts 289°
2026-04-21 15:04 -15.83570 -48.99037 3232 ft 75 kts 283°
2026-04-21 15:04 -15.83490 -48.99386 3226 ft 69 kts 283°
2026-04-21 15:04 -15.83384 -48.99879 3214 ft 70 kts 283°
2026-04-21 15:04 -15.83276 -49.00504 3233 ft 63 kts 254°
2026-04-21 15:05 -15.83411 -49.00784 3216 ft 64 kts 227°
2026-04-21 15:05 -15.84088 -49.00838 3236 ft 57 kts 115°
2026-04-21 15:05 -15.84153 -49.00413 3193 ft 64 kts 89°
2026-04-21 15:06 -15.84163 -48.99934 3109 ft 67 kts 95°
2026-04-21 15:06 -15.84238 -48.99454 2919 ft 68 kts 107°
2026-04-21 15:06 -15.84431 -48.99016 2696 ft 67 kts 118°
2026-04-21 15:06 -15.84643 -48.98644 2548 ft 50 kts 120°
2026-04-21 15:07 -15.84793 -48.98389 2549 ft 36 kts 121°
2026-04-21 15:07 -15.84890 -48.98224 2555 ft 32 kts 122°
2026-04-21 15:07 -15.84997 -48.98049 2561 ft 25 kts 122°
2026-04-21 15:07 -15.85080 -48.97904 2566 ft 22 kts 122°
2026-04-21 15:08 -15.85155 -48.97777 2569 ft 16 kts 133°
2026-04-21 15:08 -15.85250 -48.97809 2571 ft 15 kts 213°
2026-04-21 15:08 -15.85259 -48.97858 2569 ft 3 kts
2026-04-21 15:08 -15.85242 -48.97847 2570 ft 0 kts 32°